Time,TemperatureF,DewpointF,PressureIn,WindDirection,WindDirectionDegrees,WindSpeedMPH,WindSpeedGustMPH,Humidity,HourlyPrecipIn,Conditions,Clouds,dailyrainin,SoftwareType,DateUTC
2013-03-15 00:02:00,30.7,4.5,30.18,North,-999,0.0,0.0,32,0.00,,,-99.99,FreeWX 2.04,2013-03-15 04:02:00,
2013-03-15 00:12:00,30.7,5.0,30.18,North,-999,0.0,0.0,33,0.00,,,-99.99,FreeWX 2.04,2013-03-15 04:12:00,
2013-03-15 00:22:00,30.6,6.8,30.18,North,-999,0.0,0.0,36,0.00,,,-99.99,FreeWX 2.04,2013-03-15 04:22:00,
2013-03-15 00:32:00,30.6,6.8,30.15,North,-999,0.0,0.0,36,0.00,,,-99.99,FreeWX 2.04,2013-03-15 04:32:00,
2013-03-15 00:42:00,30.2,7.7,30.15,North,-999,0.0,3.6,38,0.00,,,-99.99,FreeWX 2.04,2013-03-15 04:42:00,
2013-03-15 00:52:00,30.2,6.4,30.15,North,-999,0.0,0.0,36,0.00,,,-99.99,FreeWX 2.04,2013-03-15 04:52:00,
2013-03-15 01:02:00,30.0,5.7,30.15,North,-999,0.0,0.0,35,0.00,,,-99.99,FreeWX 2.04,2013-03-15 05:02:00,
2013-03-15 01:12:00,29.7,4.8,30.15,North,-999,0.0,0.0,34,0.00,,,-99.99,FreeWX 2.04,2013-03-15 05:12:00,
2013-03-15 01:23:00,29.3,5.7,30.15,North,-999,0.0,0.0,36,0.00,,,-99.99,FreeWX 2.04,2013-03-15 05:23:00,
2013-03-15 01:33:00,29.3,6.3,30.15,North,-999,0.0,0.0,37,0.00,,,-99.99,FreeWX 2.04,2013-03-15 05:33:00,
2013-03-15 01:43:00,29.3,6.3,30.15,North,-999,0.0,0.0,37,0.00,,,-99.99,FreeWX 2.04,2013-03-15 05:43:00,
2013-03-15 01:53:00,29.1,6.1,30.15,North,-999,0.0,0.0,37,0.00,,,-99.99,FreeWX 2.04,2013-03-15 05:53:00,
2013-03-15 02:03:00,29.1,7.3,30.15,North,-999,0.0,0.0,39,0.00,,,-99.99,FreeWX 2.04,2013-03-15 06:03:00,
2013-03-15 02:13:00,29.1,7.9,30.15,North,-999,0.0,0.0,40,0.00,,,-99.99,FreeWX 2.04,2013-03-15 06:13:00,
2013-03-15 02:23:00,29.1,7.9,30.15,North,-999,0.0,0.0,40,0.00,,,-99.99,FreeWX 2.04,2013-03-15 06:23:00,
2013-03-15 02:33:00,29.3,8.6,30.15,North,-999,0.0,0.0,41,0.00,,,-99.99,FreeWX 2.04,2013-03-15 06:33:00,
2013-03-15 02:43:00,29.3,8.6,30.15,North,-999,0.0,0.0,41,0.00,,,-99.99,FreeWX 2.04,2013-03-15 06:43:00,
2013-03-15 02:53:00,29.1,8.4,30.15,North,-999,0.0,0.0,41,0.00,,,-99.99,FreeWX 2.04,2013-03-15 06:53:00,
2013-03-15 03:03:00,29.1,9.0,30.15,North,-999,0.0,0.0,42,0.00,,,-99.99,FreeWX 2.04,2013-03-15 07:03:00,
2013-03-15 03:13:00,28.9,8.2,30.15,North,-999,0.0,0.0,41,0.00,,,-99.99,FreeWX 2.04,2013-03-15 07:13:00,
2013-03-15 03:23:00,28.8,8.6,30.15,North,-999,0.0,0.0,42,0.00,,,-99.99,FreeWX 2.04,2013-03-15 07:23:00,
2013-03-15 03:33:00,28.6,7.9,30.12,North,-999,0.0,0.0,41,0.00,,,-99.99,FreeWX 2.04,2013-03-15 07:33:00,
2013-03-15 03:43:00,28.0,7.3,30.12,North,-999,0.0,0.0,41,0.00,,,-99.99,FreeWX 2.04,2013-03-15 07:43:00,
2013-03-15 03:53:00,28.0,7.3,30.12,North,-999,0.0,0.0,41,0.00,,,-99.99,FreeWX 2.04,2013-03-15 07:53:00,
2013-03-15 04:03:00,28.0,7.9,30.12,North,-999,0.0,0.0,42,0.00,,,-99.99,FreeWX 2.04,2013-03-15 08:03:00,
2013-03-15 04:13:00,28.0,7.9,30.12,North,-999,0.0,0.0,42,0.00,,,-99.99,FreeWX 2.04,2013-03-15 08:13:00,
2013-03-15 04:23:00,27.7,7.7,30.09,North,-999,0.0,0.0,42,0.00,,,-99.99,FreeWX 2.04,2013-03-15 08:23:00,
2013-03-15 04:33:00,27.7,7.7,30.09,North,-999,0.0,0.0,42,0.00,,,-99.99,FreeWX 2.04,2013-03-15 08:33:00,
2013-03-15 04:43:00,27.5,7.5,30.09,North,-999,0.0,0.0,42,0.00,,,-99.99,FreeWX 2.04,2013-03-15 08:43:00,
2013-03-15 04:53:00,28.0,8.4,30.09,North,-999,0.0,0.0,43,0.00,,,-99.99,FreeWX 2.04,2013-03-15 08:53:00,
2013-03-15 05:03:00,28.2,8.6,30.09,North,-999,0.0,0.0,43,0.00,,,-99.99,FreeWX 2.04,2013-03-15 09:03:00,
2013-03-15 05:13:00,28.2,8.6,30.09,North,-999,0.0,0.0,43,0.00,,,-99.99,FreeWX 2.04,2013-03-15 09:13:00,
2013-03-15 05:23:00,28.0,9.5,30.09,North,-999,0.0,0.0,45,0.00,,,-99.99,FreeWX 2.04,2013-03-15 09:23:00,
2013-03-15 05:33:00,28.0,9.0,30.09,North,-999,0.0,0.0,44,0.00,,,-99.99,FreeWX 2.04,2013-03-15 09:33:00,
2013-03-15 05:43:00,27.9,9.3,30.09,North,-999,0.0,0.0,45,0.00,,,-99.99,FreeWX 2.04,2013-03-15 09:43:00,
2013-03-15 05:53:00,27.7,9.1,30.09,North,-999,0.0,0.0,45,0.00,,,-99.99,FreeWX 2.04,2013-03-15 09:53:00,
2013-03-15 06:03:00,27.3,8.8,30.09,North,-999,0.0,0.0,45,0.00,,,-99.99,FreeWX 2.04,2013-03-15 10:03:00,
2013-03-15 06:13:00,27.1,8.6,30.09,North,-999,0.0,0.0,45,0.00,,,-99.99,FreeWX 2.04,2013-03-15 10:13:00,
2013-03-15 06:23:00,27.3,8.8,30.06,North,-999,0.0,0.0,45,0.00,,,-99.99,FreeWX 2.04,2013-03-15 10:23:00,
2013-03-15 06:33:00,27.1,8.6,30.06,North,-999,0.0,0.0,45,0.00,,,-99.99,FreeWX 2.04,2013-03-15 10:33:00,
2013-03-15 06:43:00,27.0,8.4,30.06,North,-999,0.0,0.0,45,0.00,,,-99.99,FreeWX 2.04,2013-03-15 10:43:00,
2013-03-15 06:53:00,27.0,9.0,30.06,North,-999,0.0,3.1,46,0.00,,,-99.99,FreeWX 2.04,2013-03-15 10:53:00,
2013-03-15 07:03:00,27.1,10.0,30.06,North,-999,0.0,3.6,48,0.00,,,-99.99,FreeWX 2.04,2013-03-15 11:03:00,
2013-03-15 07:13:00,27.1,10.0,30.06,North,-999,0.0,0.0,48,0.00,,,-99.99,FreeWX 2.04,2013-03-15 11:13:00,
2013-03-15 07:23:00,27.1,10.0,30.06,North,-999,0.0,0.0,48,0.00,,,-99.99,FreeWX 2.04,2013-03-15 11:23:00,
2013-03-15 07:33:00,27.1,10.6,30.06,North,-999,0.0,0.0,49,0.00,,,-99.99,FreeWX 2.04,2013-03-15 11:33:00,
2013-03-15 07:43:00,27.0,9.9,30.06,North,-999,0.0,0.0,48,0.00,,,-99.99,FreeWX 2.04,2013-03-15 11:43:00,
2013-03-15 07:53:00,27.0,9.9,30.06,North,-999,0.0,0.0,48,0.00,,,-99.99,FreeWX 2.04,2013-03-15 11:53:00,
2013-03-15 08:03:00,27.1,10.0,30.06,North,-999,0.0,0.0,48,0.00,,,-99.99,FreeWX 2.04,2013-03-15 12:03:00,
2013-03-15 08:13:00,27.5,10.4,30.06,North,-999,0.0,0.0,48,0.00,,,-99.99,FreeWX 2.04,2013-03-15 12:13:00,
2013-03-15 08:23:00,28.2,11.5,30.06,North,-999,0.0,0.0,49,0.00,,,-99.99,FreeWX 2.04,2013-03-15 12:23:00,
2013-03-15 08:33:00,28.8,12.0,30.06,North,-999,0.0,0.0,49,0.00,,,-99.99,FreeWX 2.04,2013-03-15 12:33:00,
2013-03-15 09:14:00,33.8,17.2,30.06,North,356,2.0,6.9,50,0.00,,,-99.99,FreeWX 2.04,2013-03-15 13:14:00,
2013-03-15 09:24:00,35.4,14.7,30.03,NNW,345,2.0,9.6,42,0.00,,,-99.99,FreeWX 2.04,2013-03-15 13:24:00,
2013-03-15 09:34:00,36.9,13.1,30.03,NNW,348,3.0,7.4,37,0.00,,,-99.99,FreeWX 2.04,2013-03-15 13:34:00,
2013-03-15 09:44:00,38.1,11.7,30.03,North,350,4.0,7.8,33,0.00,,,-99.99,FreeWX 2.04,2013-03-15 13:44:00,
2013-03-15 09:54:00,39.0,10.2,30.03,North,353,4.0,7.8,30,0.00,,,-99.99,FreeWX 2.04,2013-03-15 13:54:00,
2013-03-15 10:04:00,39.9,10.9,30.03,NNW,346,5.0,7.8,30,0.00,,,-99.99,FreeWX 2.04,2013-03-15 14:04:00,
2013-03-15 10:14:00,41.0,11.1,30.03,North,350,4.0,8.7,29,0.00,,,-99.99,FreeWX 2.04,2013-03-15 14:14:00,
2013-03-15 10:24:00,42.3,12.4,30.03,North,351,4.0,9.6,29,0.00,,,-99.99,FreeWX 2.04,2013-03-15 14:24:00,
2013-03-15 10:34:00,43.7,12.7,30.03,North,349,5.0,8.7,28,0.00,,,-99.99,FreeWX 2.04,2013-03-15 14:34:00,
2013-03-15 10:44:00,45.0,13.8,30.03,North,357,4.0,8.3,28,0.00,,,-99.99,FreeWX 2.04,2013-03-15 14:44:00,
2013-03-15 10:54:00,46.8,14.5,30.00,North,355,2.0,6.3,27,0.00,,,-99.99,FreeWX 2.04,2013-03-15 14:54:00,
2013-03-15 11:04:00,48.4,13.3,30.00,North,358,4.0,10.5,24,0.00,,,-99.99,FreeWX 2.04,2013-03-15 15:04:00,
2013-03-15 11:14:00,48.9,10.8,30.00,NNE,18,6.0,13.0,21,0.00,,,-99.99,FreeWX 2.04,2013-03-15 15:14:00,
2013-03-15 11:24:00,50.0,11.7,30.00,NNE,29,4.0,11.6,21,0.00,,,-99.99,FreeWX 2.04,2013-03-15 15:24:00,
2013-03-15 11:34:00,50.9,12.4,29.97,North,9,4.0,8.3,21,0.00,,,-99.99,FreeWX 2.04,2013-03-15 15:34:00,
2013-03-15 11:44:00,52.2,13.5,29.97,North,2,4.0,7.4,21,0.00,,,-99.99,FreeWX 2.04,2013-03-15 15:44:00,
2013-03-15 11:54:00,52.9,12.9,29.97,North,359,4.0,8.3,20,0.00,,,-99.99,FreeWX 2.04,2013-03-15 15:54:00,
2013-03-15 12:04:00,53.2,13.3,29.97,North,10,5.0,9.2,20,0.00,,,-99.99,FreeWX 2.04,2013-03-15 16:04:00,
2013-03-15 12:14:00,52.9,12.9,29.97,North,1,6.0,11.0,20,0.00,,,-99.99,FreeWX 2.04,2013-03-15 16:14:00,
2013-03-15 12:25:00,53.8,13.6,29.97,North,358,6.0,10.1,20,0.00,,,-99.99,FreeWX 2.04,2013-03-15 16:25:00,
2013-03-15 12:35:00,54.3,14.2,29.94,NNE,23,5.0,11.6,20,0.00,,,-99.99,FreeWX 2.04,2013-03-15 16:35:00,
2013-03-15 12:45:00,54.9,14.5,29.94,NNE,32,5.0,10.5,20,0.00,,,-99.99,FreeWX 2.04,2013-03-15 16:45:00,
2013-03-15 12:55:00,55.9,15.4,29.94,North,8,4.0,8.3,20,0.00,,,-99.99,FreeWX 2.04,2013-03-15 16:55:00,
2013-03-15 13:05:00,57.6,15.6,29.94,NNE,27,3.0,6.3,19,0.00,,,-99.99,FreeWX 2.04,2013-03-15 17:05:00,
2013-03-15 13:15:00,57.9,16.0,29.94,North,356,4.0,11.0,19,0.00,,,-99.99,FreeWX 2.04,2013-03-15 17:15:00,
2013-03-15 13:25:00,58.6,16.5,29.94,NNW,343,4.0,7.8,19,0.00,,,-99.99,FreeWX 2.04,2013-03-15 17:25:00,
2013-03-15 13:35:00,58.1,16.2,29.94,North,349,5.0,9.6,19,0.00,,,-99.99,FreeWX 2.04,2013-03-15 17:35:00,
2013-03-15 13:45:00,58.3,16.2,29.94,North,8,6.0,11.2,19,0.00,,,-99.99,FreeWX 2.04,2013-03-15 17:45:00,
2013-03-15 13:55:00,58.5,16.3,29.91,NNE,24,5.0,12.1,19,0.00,,,-99.99,FreeWX 2.04,2013-03-15 17:55:00,
2013-03-15 14:05:00,57.9,16.0,29.91,North,11,6.0,11.0,19,0.00,,,-99.99,FreeWX 2.04,2013-03-15 18:05:00,
2013-03-15 14:15:00,58.3,16.2,29.91,NE,41,5.0,9.2,19,0.00,,,-99.99,FreeWX 2.04,2013-03-15 18:15:00,
2013-03-15 14:25:00,58.8,16.7,29.91,NE,43,5.0,10.5,19,0.00,,,-99.99,FreeWX 2.04,2013-03-15 18:25:00,
2013-03-15 14:35:00,59.2,16.9,29.91,NNE,25,4.0,9.2,19,0.00,,,-99.99,FreeWX 2.04,2013-03-15 18:35:00,
2013-03-15 14:45:00,58.5,16.3,29.91,North,3,6.0,11.0,19,0.00,,,-99.99,FreeWX 2.04,2013-03-15 18:45:00,
2013-03-15 14:55:00,59.2,16.9,29.91,NNE,16,5.0,8.7,19,0.00,,,-99.99,FreeWX 2.04,2013-03-15 18:55:00,
2013-03-15 15:05:00,59.7,17.4,29.88,NNE,13,5.0,10.5,19,0.00,,,-99.99,FreeWX 2.04,2013-03-15 19:05:00,
2013-03-15 15:15:00,60.8,18.3,29.88,North,0,4.0,11.0,19,0.00,,,-99.99,FreeWX 2.04,2013-03-15 19:15:00,
2013-03-15 15:25:00,61.0,18.5,29.88,North,358,6.0,10.5,19,0.00,,,-99.99,FreeWX 2.04,2013-03-15 19:25:00,
2013-03-15 15:35:00,61.7,19.0,29.88,NNE,22,4.0,7.8,19,0.00,,,-99.99,FreeWX 2.04,2013-03-15 19:35:00,
2013-03-15 15:45:00,62.6,18.5,29.88,North,5,4.0,8.7,18,0.00,,,-99.99,FreeWX 2.04,2013-03-15 19:45:00,
2013-03-15 15:55:00,62.2,18.1,29.88,NNE,25,5.0,12.1,18,0.00,,,-99.99,FreeWX 2.04,2013-03-15 19:55:00,
2013-03-15 16:05:00,62.1,18.1,29.88,NE,50,4.0,7.4,18,0.00,,,-99.99,FreeWX 2.04,2013-03-15 20:05:00,
2013-03-15 16:15:00,62.1,18.1,29.88,NE,44,5.0,12.1,18,0.00,,,-99.99,FreeWX 2.04,2013-03-15 20:15:00,
2013-03-15 16:25:00,62.2,18.1,29.88,NNE,16,4.0,8.3,18,0.00,,,-99.99,FreeWX 2.04,2013-03-15 20:25:00,
2013-03-15 16:35:00,62.6,18.5,29.85,ENE,71,4.0,8.7,18,0.00,,,-99.99,FreeWX 2.04,2013-03-15 20:35:00,
2013-03-15 16:45:00,62.4,18.3,29.85,NE,36,5.0,11.2,18,0.00,,,-99.99,FreeWX 2.04,2013-03-15 20:45:00,
2013-03-15 16:55:00,62.6,18.5,29.85,North,10,4.0,7.8,18,0.00,,,-99.99,FreeWX 2.04,2013-03-15 20:55:00,
2013-03-15 17:05:00,61.9,18.0,29.85,NNE,12,6.0,11.0,18,0.00,,,-99.99,FreeWX 2.04,2013-03-15 21:05:00,
2013-03-15 17:15:00,61.5,18.9,29.85,NE,48,5.0,12.1,19,0.00,,,-99.99,FreeWX 2.04,2013-03-15 21:15:00,
2013-03-15 17:25:00,61.0,18.5,29.85,NE,40,6.0,13.9,19,0.00,,,-99.99,FreeWX 2.04,2013-03-15 21:25:00,
2013-03-15 17:35:00,60.6,18.1,29.85,NE,46,5.0,12.5,19,0.00,,,-99.99,FreeWX 2.04,2013-03-15 21:35:00,
2013-03-15 17:45:00,60.3,17.8,29.85,East,86,4.0,8.3,19,0.00,,,-99.99,FreeWX 2.04,2013-03-15 21:45:00,
2013-03-15 17:55:00,59.9,17.6,29.85,North,10,2.0,5.8,19,0.00,,,-99.99,FreeWX 2.04,2013-03-15 21:55:00,
2013-03-15 18:05:00,59.7,17.4,29.85,NNE,14,4.0,11.0,19,0.00,,,-99.99,FreeWX 2.04,2013-03-15 22:05:00,
2013-03-15 18:15:00,59.4,17.1,29.85,ENE,59,4.0,11.0,19,0.00,,,-99.99,FreeWX 2.04,2013-03-15 22:15:00,
2013-03-15 18:25:00,59.0,16.9,29.85,ENE,60,4.0,6.7,19,0.00,,,-99.99,FreeWX 2.04,2013-03-15 22:25:00,
2013-03-15 18:35:00,58.6,16.5,29.85,NNE,23,3.0,7.8,19,0.00,,,-99.99,FreeWX 2.04,2013-03-15 22:35:00,
2013-03-15 18:45:00,58.1,16.2,29.85,NNE,30,3.0,6.3,19,0.00,,,-99.99,FreeWX 2.04,2013-03-15 22:45:00,
2013-03-15 18:55:00,57.7,15.8,29.85,North,6,2.0,6.9,19,0.00,,,-99.99,FreeWX 2.04,2013-03-15 22:55:00,
2013-03-15 19:05:00,57.6,15.6,29.85,NE,52,3.0,4.9,19,0.00,,,-99.99,FreeWX 2.04,2013-03-15 23:05:00,
2013-03-15 19:15:00,57.2,15.3,29.85,North,0,2.0,3.6,19,0.00,,,-99.99,FreeWX 2.04,2013-03-15 23:15:00,
2013-03-15 19:25:00,56.7,14.9,29.85,North,-999,0.0,0.0,19,0.00,,,-99.99,FreeWX 2.04,2013-03-15 23:25:00,
2013-03-15 19:35:00,56.3,15.8,29.88,North,-999,0.0,0.0,20,0.00,,,-99.99,FreeWX 2.04,2013-03-15 23:35:00,
2013-03-15 19:45:00,55.9,15.4,29.88,North,-999,0.0,0.0,20,0.00,,,-99.99,FreeWX 2.04,2013-03-15 23:45:00,
2013-03-15 19:55:00,55.6,15.1,29.88,North,-999,0.0,0.0,20,0.00,,,-99.99,FreeWX 2.04,2013-03-15 23:55:00,
2013-03-15 20:05:00,55.2,14.9,29.88,North,-999,0.0,4.0,20,0.00,,,-99.99,FreeWX 2.04,2013-03-16 00:05:00,
2013-03-15 20:15:00,54.5,14.2,29.88,North,-999,0.0,0.0,20,0.00,,,-99.99,FreeWX 2.04,2013-03-16 00:15:00,
2013-03-15 20:25:00,54.0,13.8,29.88,North,-999,0.0,0.0,20,0.00,,,-99.99,FreeWX 2.04,2013-03-16 00:25:00,
2013-03-15 20:35:00,53.6,16.7,29.88,North,-999,0.0,0.0,23,0.00,,,-99.99,FreeWX 2.04,2013-03-16 00:35:00,
2013-03-15 20:45:00,53.1,16.3,29.88,North,-999,0.0,0.0,23,0.00,,,-99.99,FreeWX 2.04,2013-03-16 00:45:00,
2013-03-15 20:55:00,52.3,15.6,29.88,North,-999,0.0,0.0,23,0.00,,,-99.99,FreeWX 2.04,2013-03-16 00:55:00,
2013-03-15 21:05:00,52.0,18.1,29.85,North,-999,0.0,0.0,26,0.00,,,-99.99,FreeWX 2.04,2013-03-16 01:05:00,
2013-03-15 21:15:00,51.6,17.8,29.85,North,-999,0.0,0.0,26,0.00,,,-99.99,FreeWX 2.04,2013-03-16 01:15:00,
2013-03-15 21:25:00,51.1,18.3,29.85,North,-999,0.0,0.0,27,0.00,,,-99.99,FreeWX 2.04,2013-03-16 01:25:00,
2013-03-15 21:35:00,50.5,17.8,29.85,North,-999,0.0,0.0,27,0.00,,,-99.99,FreeWX 2.04,2013-03-16 01:35:00,
2013-03-15 21:45:00,50.2,17.4,29.85,North,-999,0.0,0.0,27,0.00,,,-99.99,FreeWX 2.04,2013-03-16 01:45:00,
2013-03-15 21:55:00,49.8,19.6,29.85,North,-999,0.0,0.0,30,0.00,,,-99.99,FreeWX 2.04,2013-03-16 01:55:00,
2013-03-15 22:05:00,49.6,18.7,29.85,North,-999,0.0,0.0,29,0.00,,,-99.99,FreeWX 2.04,2013-03-16 02:05:00,
2013-03-15 22:15:00,49.3,19.2,29.85,North,-999,0.0,0.0,30,0.00,,,-99.99,FreeWX 2.04,2013-03-16 02:15:00,
2013-03-15 22:25:00,48.7,19.4,29.85,North,-999,0.0,0.0,31,0.00,,,-99.99,FreeWX 2.04,2013-03-16 02:25:00,
2013-03-15 22:35:00,48.6,22.1,29.85,North,-999,0.0,0.0,35,0.00,,,-99.99,FreeWX 2.04,2013-03-16 02:35:00,
2013-03-15 22:45:00,48.2,19.8,29.85,North,-999,0.0,0.0,32,0.00,,,-99.99,FreeWX 2.04,2013-03-16 02:45:00,
2013-03-15 22:55:00,47.8,20.8,29.85,North,-999,0.0,0.0,34,0.00,,,-99.99,FreeWX 2.04,2013-03-16 02:55:00,
2013-03-15 23:05:00,47.8,22.3,29.82,North,-999,0.0,0.0,36,0.00,,,-99.99,FreeWX 2.04,2013-03-16 03:05:00,
2013-03-15 23:15:00,47.5,21.2,29.82,North,-999,0.0,0.0,35,0.00,,,-99.99,FreeWX 2.04,2013-03-16 03:15:00,
2013-03-15 23:25:00,47.5,21.9,29.82,North,-999,0.0,0.0,36,0.00,,,-99.99,FreeWX 2.04,2013-03-16 03:25:00,
2013-03-15 23:35:00,47.5,21.2,29.82,North,-999,0.0,0.0,35,0.00,,,-99.99,FreeWX 2.04,2013-03-16 03:35:00,
2013-03-15 23:45:00,47.3,22.3,29.82,North,-999,0.0,0.0,37,0.00,,,-99.99,FreeWX 2.04,2013-03-16 03:45:00,
2013-03-15 23:55:00,47.1,22.3,29.82,North,-999,0.0,0.0,37,0.00,,,-99.99,FreeWX 2.04,2013-03-16 03:55:00,